Flag for Brazil Weather past 2 weeks in Brasilia, Distrito Federal, Brazil

Now
70 °F

Clear.


Feels Like: 70 °F
Forecast: 60 / 75 °F
Wind: 8 mph from Southeast

Location: Brasilia Aeroporto

Current Time: Jul 6, 2015 at 9:18:21 PM

Latest Report: Jul 6, 2015 at 9:00 PM


Visibility: 10 mi

Pressure: 30.15 "Hg (26.56 "Hg at 1091m altitude)

Humidity: 64%

Dew point: 57 °F

Location of BrasiliaLocation

Historic Weather in Brasilia — Graph

°F

Brasilia temperature yesterday

Maximum temperature yesterday: 82 °F (at 3:00 PM)
Minimum temperature yesterday: 59 °F (at 7:00 AM)
Average temperature yesterday: 71 °F

Past Weeks' High & Low Weather Summary

 TemperatureHumidityPressure
High82 °F (Jul 4, 2:00 PM)100% (Jun 23, 8:00 AM)30.42 "Hg (Jun 23, 8:00 AM)
Low50 °F (Jun 23, 6:00 AM)28% (Jul 1, 4:00 PM)30.04 "Hg (Jul 5, 4:00 PM)
Average66 °F63%30.22 "Hg
* Reported Jun 21 8:00 PM — Jul 6 8:00 PM, Brasilia, Weather by CustomWeather, © 2015

Note: Actual official high and low records may vary slightly from our data, if they occured in-between our weather recording intervals... More about our weather records

Advertising

Brasilia weather history for previous 24 hours

 ConditionsComfort  
Time TempWeatherWind HumidityBarometerVisibility
8:00 PM
Mon, Jul 6
72 °FClear.9 mph65%30.15 "Hg10 mi
7:00 PM73 °FClear.9 mph61%30.12 "Hg10 mi
6:00 PM75 °FClear.9 mph54%30.12 "Hg10 mi
5:00 PM79 °FSunny.13 mph45%30.09 "Hg10 mi
4:00 PM81 °FSunny.9 mph37%30.09 "Hg10 mi
3:00 PM81 °FPassing clouds.7 mph37%30.09 "HgN/A
2:00 PM81 °FPassing clouds.10 mph39%30.12 "HgN/A
1:00 PM79 °FSunny.10 mph45%30.12 "Hg10 mi
12:00 PM77 °FSunny.12 mph47%30.15 "Hg10 mi
11:00 AM73 °FSunny.10 mph53%30.18 "Hg10 mi
10:00 AM72 °FSunny.10 mph57%30.18 "Hg10 mi
9:00 AM66 °FSunny.9 mph68%30.18 "Hg10 mi
8:00 AM64 °FSunny.No wind73%30.18 "Hg10 mi
7:00 AM59 °FSunny.No wind82%30.12 "Hg10 mi
6:00 AM57 °FClear.3 mph88%30.09 "Hg10 mi
5:00 AM57 °FClear.3 mph88%30.09 "Hg10 mi
4:00 AM59 °FClear.No wind82%30.09 "Hg10 mi
3:00 AM59 °FClear.No wind82%30.09 "Hg10 mi
2:00 AM61 °FClear.5 mph77%30.12 "Hg10 mi
1:00 AM66 °FClear.No wind64%30.12 "Hg10 mi
12:00 AM66 °FClear.No wind60%30.12 "Hg10 mi
11:00 PM
Sun, Jul 5
63 °FClear.No wind73%30.12 "Hg10 mi
10:00 PM73 °FClear.6 mph53%30.15 "Hg10 mi
9:00 PM72 °FClear.5 mph53%30.12 "Hg10 mi
Weather by CustomWeather, © 2015

See weather overviewHow to use our weather pages